[[{"header":{"parameterUnit":"m.s-1","parameterCategory":1,"la1":30.2991,"la2":30.254,"lo1":-89.0895,"lo2":-89.0444,"dy":0.0017,"dx":0.0017,"nx":28,"ny":28,"refTime":"2024-12-02T09:00:00:Z","depth":0,"parameterNumber":2,"parameterNumberName":"U-component_of_WINDS"},"data":[0,0,0,0,0,0,0,0,0,0,0,0,0,0,0,0,0,0,0,0,0,0,0,0,0,0,0,0,0,0,0,0,0,0,0,0,0,0,0,0,0,0,0,0,0,0,0,0,0,0,0,0,0,0,0,0,0,0,-1.1769,-1.177,0,-1.1773,-1.1773,-1.1773,-1.1741,-1.174,-1.1739,-1.1738,-1.1742,-1.1743,-1.1744,0,0,0,0,0,0,0,0,0,0,0,0,0,-1.1736,-1.1736,-1.1769,-1.177,-1.177,-1.1773,-1.1773,-1.1773,-1.1741,-1.174,-1.1739,-1.1738,-1.1742,-1.1743,-1.1744,0,0,0,0,0,0,0,0,0,0,0,0,0,-1.1746,-1.1737,-1.1769,-1.1754,-1.1753,-1.1773,-1.1773,-1.1773,-1.1741,-1.174,-1.1738,-1.1737,-1.1741,-1.1743,-1.1744,-1.178,0,0,-1.1749,-1.1749,0,0,0,0,0,0,0,0,-1.1745,-1.1747,-1.1756,-1.1755,-1.1754,-1.1755,-1.1762,-1.1775,-1.1741,-1.1745,-1.1738,-1.1736,-1.1748,-1.1748,-1.1752,-1.178,-1.178,-1.1749,-1.175,-1.175,-1.1751,0,0,0,0,0,0,0,-1.1745,-1.1747,-1.1771,-1.1756,-1.1755,-1.1747,-1.1747,-1.1765,-1.1754,-1.1745,-1.1743,-1.1743,-1.1747,-1.1751,-1.1752,-1.178,-1.1749,-1.175,-1.1751,-1.1751,-1.1838,-1.1839,0,0,0,0,0,0,-1.1746,-1.1746,-1.1771,-1.1771,-1.1746,-1.1749,-1.1748,-1.1756,-1.1754,-1.1752,-1.1745,-1.1742,-1.1749,-1.175,-1.1752,-1.1794,-1.175,-1.1751,-1.1752,-1.1836,-1.1838,-1.184,0,0,0,0,0,0,-1.1745,-1.1748,-1.1771,-1.1758,-1.176,-1.1751,-1.1759,-1.1757,-1.1761,-1.1753,-1.1751,-1.1751,-1.1748,-1.175,-1.1773,-1.1793,-1.1752,-1.1753,-1.1835,-1.1837,-1.1839,-1.1877,0,0,0,0,0,0,-1.1744,-1.1748,-1.1762,-1.1759,-1.1761,-1.1792,-1.176,-1.1758,-1.1763,-1.176,-1.1759,-1.1757,-1.1747,-1.1771,-1.1774,-1.1795,-1.1754,-1.1833,-1.1836,-1.1838,-1.1874,-1.1881,-1.1886,0,0,0,0,0,-1.1743,-1.1773,-1.1763,-1.1766,-1.1778,-1.1793,-1.1794,-1.1782,-1.1765,-1.1778,-1.1774,-1.1757,-1.179,-1.1774,-1.1777,-1.1798,-1.1831,-1.1835,-1.1838,-1.1872,-1.1879,-1.1886,0,0,0,0,0,0,-1.1779,-1.1772,-1.1761,-1.179,-1.1792,-1.1788,-1.1804,-1.1791,-1.1798,-1.1795,-1.1779,-1.1779,-1.1805,-1.1803,-1.1785,-1.1832,-1.1808,-1.1812,-1.1832,-1.184,-1.1845,-1.1846,-1.1756,0,0,0,0,0,-1.179,-1.1803,-1.1796,-1.1823,-1.1824,-1.1814,-1.1821,-1.1811,-1.1812,-1.1813,-1.181,-1.1813,-1.1824,-1.1832,-1.1841,-1.1874,-1.1873,-1.189,-1.1895,-1.19,-1.1904,-1.1922,-1.1929,-1.185,-1.185,-1.185,0,0,-1.1814,-1.1811,-1.1821,-1.183,-1.1831,-1.1845,-1.1815,-1.1831,-1.1842,-1.1816,-1.1838,-1.1835,-1.1837,-1.1865,-1.1878,-1.1865,-1.1926,-1.1904,-1.1908,-1.191,-1.1926,-1.1933,-1.194,-1.1852,-1.1852,-1.1852,0,0,-1.1864,-1.1863,-1.1885,-1.1886,-1.1887,-1.188,-1.1886,-1.1883,-1.188,-1.1902,-1.1883,-1.1895,-1.1914,-1.1916,-1.192,-1.197,-1.1955,-1.1973,-1.2004,-1.2021,-1.2027,-1.2033,-1.2051,-1.2058,-1.1977,-1.1977,-1.1977,0,-1.1893,-1.1913,-1.1898,-1.1916,-1.192,-1.1897,-1.1919,-1.1921,-1.1926,-1.1929,-1.1915,-1.1939,-1.1938,-1.1967,-1.1979,-1.1982,-1.1988,-1.1974,-1.2028,-1.2033,-1.2038,-1.2055,-1.2062,-1.1979,-1.1979,-1.1979,-1.1979,0,-1.1949,-1.1963,-1.1981,-1.1986,-1.1992,-1.2012,-1.2,-1.2009,-1.1998,-1.1992,-1.2014,-1.2013,-1.2022,-1.2027,-1.2017,-1.2054,-1.2047,-1.203,-1.2006,-1.2048,-1.2064,-1.2071,-1.1983,-1.1982,-1.1981,-1.198,0,0,-1.2023,-1.2019,-1.2025,-1.2027,-1.2026,-1.2037,-1.2056,-1.2064,-1.2072,-1.2075,-1.2091,-1.2107,-1.2092,-1.2096,-1.2086,-1.21,-1.2141,-1.2082,-1.2082,-1.2094,-1.2182,-1.2195,-1.2203,-1.2131,-1.2132,-1.2133,-1.2182,0,-1.2072,-1.2104,-1.2091,-1.2124,-1.2137,-1.2114,-1.213,-1.2132,-1.2127,-1.2137,-1.2131,-1.2144,-1.2122,-1.2124,-1.2138,-1.2133,-1.2158,-1.2129,-1.2145,-1.2146,-1.2147,-1.2211,-1.2225,-1.2272,-1.2188,-1.2189,-1.219,0,-1.2134,-1.214,-1.2174,-1.2171,-1.2176,-1.2191,-1.2197,-1.2208,-1.2208,-1.2204,-1.2208,-1.2194,-1.2212,-1.2187,-1.2212,-1.2192,-1.2197,-1.2196,-1.2197,-1.2199,-1.2171,-1.2216,-1.2287,-1.2294,-1.22,-1.2199,-1.2198,0,-1.2186,-1.2202,-1.2225,-1.2227,-1.2223,-1.2234,-1.2233,-1.2233,-1.2239,-1.2244,-1.2248,-1.2256,-1.226,-1.2266,-1.2255,-1.2238,-1.2282,-1.2255,-1.2279,-1.2279,-1.229,-1.229,-1.2364,-1.2292,-1.2292,-1.2292,-1.2292,0,-1.2243,-1.2265,-1.2248,-1.2262,-1.2285,-1.227,-1.2294,-1.229,-1.229,-1.2303,-1.2284,-1.2296,-1.228,-1.2291,-1.2282,-1.2304,-1.2306,-1.2303,-1.2301,-1.2306,-1.2306,-1.231,-1.2307,-1.2294,-1.2293,-1.2293,-1.2293,0,-1.2305,-1.2294,-1.2317,-1.2312,-1.2311,-1.2329,-1.2324,-1.2337,-1.233,-1.2347,-1.235,-1.2339,-1.2351,-1.234,-1.2352,-1.2346,-1.2375,-1.2368,-1.2375,-1.2373,-1.2398,-1.2396,-1.2478,-1.2488,-1.2409,-1.241,-1.241,0,-1.2343,-1.2359,-1.2355,-1.2362,-1.2362,-1.2374,-1.238,-1.2365,-1.2372,-1.2373,-1.2386,-1.2396,-1.2404,-1.2424,-1.2418,-1.2426,-1.2419,-1.2447,-1.2421,-1.2425,-1.2421,-1.242,-1.2422,-1.2453,-1.2454,-1.2455,-1.2455,0,-1.2411,-1.2405,-1.2413,-1.2421,-1.2428,-1.2433,-1.2436,-1.2443,-1.2427,-1.2436,-1.2448,-1.2454,-1.2465,-1.2476,-1.2482,-1.2481,-1.2466,-1.2464,-1.247,-1.2475,-1.2479,-1.2478,-1.2391,-1.2462,-1.2461,-1.2461,-1.2461,-1.246,-1.2462,-1.2476,-1.2475,-1.2486,-1.2486,-1.249,-1.2502,-1.2496,-1.2505,-1.2514,-1.2504,-1.2519,-1.2519,-1.2526,-1.2526,-1.2538,-1.2526,-1.2535,-1.2537,-1.254,-1.2544,-1.2476,-1.2539,-1.2539,-1.2538,-1.2538,-1.2538,0,-1.253,-1.2528,-1.2538,-1.2543,-1.2552,-1.2536,-1.2538,-1.2547,-1.256,-1.2561,-1.2568,-1.2582,-1.2592,-1.2586,-1.2594,-1.2605,-1.2598,-1.2608,-1.2607,-1.2607,-1.2553,-1.2548,-1.2613,-1.2613,-1.2613,-1.2613,-1.2613,-1.2613,-1.2567,-1.2589,-1.2582,-1.2604,-1.2602,-1.2616,-1.2619,-1.2622,-1.2623,-1.2639,-1.2647,-1.2643,-1.2641,-1.265,-1.2658,-1.2656,-1.2661,-1.2673,-1.2669,-1.2618,-1.2611,-1.2604,-1.2599,-1.2674,-1.2674,-1.2722,-1.2722,-1.2722]},{"header":{"parameterUnit":"m.s-1","parameterCategory":1,"la1":30.2991,"la2":30.254,"lo1":-89.0895,"lo2":-89.0444,"dy":0.0017,"dx":0.0017,"nx":28,"ny":28,"refTime":"2024-12-02T09:00:00:Z","depth":0,"parameterNumber":3,"parameterNumberName":"V-component_of_WINDS"},"data":[0,0,0,0,0,0,0,0,0,0,0,0,0,0,0,0,0,0,0,0,0,0,0,0,0,0,0,0,0,0,0,0,0,0,0,0,0,0,0,0,0,0,0,0,0,0,0,0,0,0,0,0,0,0,0,0,0,0,-4.0412,-4.0413,0,-4.0477,-4.0478,-4.0479,-4.0469,-4.0468,-4.0467,-4.0466,-4.0528,-4.0531,-4.0534,0,0,0,0,0,0,0,0,0,0,0,0,0,-4.0275,-4.0278,-4.0412,-4.0413,-4.0413,-4.0477,-4.0478,-4.0479,-4.0469,-4.0468,-4.0467,-4.0466,-4.0527,-4.0531,-4.0534,0,0,0,0,0,0,0,0,0,0,0,0,0,-4.0337,-4.0278,-4.0412,-4.0417,-4.0418,-4.0477,-4.0478,-4.0479,-4.047,-4.0468,-4.0466,-4.0465,-4.0526,-4.053,-4.0534,-4.0591,0,0,-4.0546,-4.0548,0,0,0,0,0,0,0,0,-4.0333,-4.0342,-4.0415,-4.0416,-4.0418,-4.0464,-4.0453,-4.0517,-4.047,-4.045,-4.0466,-4.0464,-4.0508,-4.0513,-4.0529,-4.0594,-4.0597,-4.0547,-4.0549,-4.0551,-4.0552,0,0,0,0,0,0,0,-4.0329,-4.0339,-4.0437,-4.0416,-4.0418,-4.0414,-4.0421,-4.0465,-4.0487,-4.0451,-4.0451,-4.0459,-4.0508,-4.0525,-4.053,-4.0598,-4.0547,-4.055,-4.0553,-4.0554,-4.0714,-4.0716,0,0,0,0,0,0,-4.0324,-4.0335,-4.0435,-4.0439,-4.0371,-4.0418,-4.0426,-4.045,-4.0486,-4.0491,-4.046,-4.0458,-4.0519,-4.0526,-4.0532,-4.0603,-4.0551,-4.0555,-4.0557,-4.0713,-4.0715,-4.0717,0,0,0,0,0,0,-4.0321,-4.0333,-4.0433,-4.0387,-4.04,-4.0422,-4.045,-4.0452,-4.0469,-4.0493,-4.0497,-4.0474,-4.0518,-4.0527,-4.0577,-4.0605,-4.0557,-4.056,-4.071,-4.0713,-4.0716,-4.0743,0,0,0,0,0,0,-4.0317,-4.0332,-4.0355,-4.0388,-4.0402,-4.0478,-4.0451,-4.0455,-4.0477,-4.0475,-4.0507,-4.051,-4.0517,-4.0572,-4.0581,-4.0609,-4.0563,-4.0708,-4.0712,-4.0715,-4.074,-4.0746,-4.0752,0,0,0,0,0,-4.0312,-4.0359,-4.0356,-4.0368,-4.0432,-4.048,-4.0488,-4.0496,-4.0479,-4.0502,-4.0517,-4.0509,-4.06,-4.0577,-4.0588,-4.0617,-4.0706,-4.0711,-4.0715,-4.0737,-4.0745,-4.0752,0,0,0,0,0,0,-4.0326,-4.0363,-4.0361,-4.0419,-4.0447,-4.0478,-4.0507,-4.0504,-4.0535,-4.0532,-4.0539,-4.0547,-4.0598,-4.0613,-4.0586,-4.0675,-4.0651,-4.0657,-4.0664,-4.0672,-4.0678,-4.0673,-4.0567,0,0,0,0,0,-4.0336,-4.0373,-4.0403,-4.0452,-4.0466,-4.0484,-4.0505,-4.051,-4.0537,-4.0548,-4.0567,-4.0594,-4.0628,-4.0651,-4.0683,-4.0742,-4.0748,-4.0767,-4.0773,-4.0778,-4.0784,-4.0817,-4.0825,-4.0731,-4.073,-4.073,0,0,-4.0357,-4.0382,-4.0404,-4.0455,-4.0477,-4.0515,-4.0494,-4.0534,-4.0562,-4.0554,-4.0604,-4.0619,-4.0648,-4.0703,-4.0728,-4.0717,-4.0812,-4.0784,-4.0787,-4.079,-4.0822,-4.0831,-4.0839,-4.0733,-4.0733,-4.0732,0,0,-4.0414,-4.0436,-4.048,-4.0503,-4.0537,-4.0549,-4.0559,-4.0592,-4.0602,-4.0652,-4.0648,-4.068,-4.0739,-4.0761,-4.0779,-4.0846,-4.084,-4.0856,-4.0888,-4.092,-4.0928,-4.0934,-4.0959,-4.0967,-4.0862,-4.0862,-4.0862,0,-4.0435,-4.0493,-4.0503,-4.0544,-4.0567,-4.0564,-4.0608,-4.0629,-4.0671,-4.0686,-4.0673,-4.0748,-4.0767,-4.0828,-4.0844,-4.0859,-4.0871,-4.0853,-4.0926,-4.0933,-4.0939,-4.0963,-4.0972,-4.0864,-4.0864,-4.0863,-4.0863,0,-4.0517,-4.0558,-4.0589,-4.0632,-4.0658,-4.07,-4.0716,-4.074,-4.0742,-4.0756,-4.0807,-4.0831,-4.0869,-4.0883,-4.0885,-4.0944,-4.0936,-4.0924,-4.09,-4.095,-4.0972,-4.0981,-4.0866,-4.0866,-4.0865,-4.0865,0,0,-4.0584,-4.0634,-4.0645,-4.0665,-4.0703,-4.0734,-4.0776,-4.0815,-4.0836,-4.0865,-4.0901,-4.0951,-4.0941,-4.0963,-4.0967,-4.0994,-4.1047,-4.0979,-4.098,-4.0992,-4.1114,-4.1123,-4.1134,-4.1043,-4.1045,-4.1046,-4.1112,0,-4.0646,-4.0723,-4.0733,-4.08,-4.0838,-4.0836,-4.0872,-4.0899,-4.0912,-4.0945,-4.0959,-4.0995,-4.0979,-4.0992,-4.1019,-4.1035,-4.1072,-4.103,-4.1075,-4.1077,-4.1069,-4.1145,-4.1155,-4.1216,-4.1121,-4.1122,-4.1123,0,-4.0728,-4.0762,-4.0834,-4.0868,-4.0884,-4.0917,-4.0954,-4.0985,-4.1015,-4.1023,-4.1048,-4.1049,-4.1091,-4.1065,-4.1124,-4.1096,-4.1115,-4.1125,-4.1128,-4.1133,-4.1103,-4.1153,-4.1235,-4.1245,-4.1137,-4.1136,-4.1135,0,-4.0771,-4.0834,-4.0886,-4.0903,-4.0943,-4.0967,-4.0984,-4.1013,-4.1036,-4.1068,-4.1083,-4.1119,-4.1138,-4.1166,-4.1176,-4.1156,-4.1234,-4.1209,-4.1242,-4.1241,-4.1258,-4.1257,-4.1346,-4.127,-4.127,-4.1269,-4.1269,0,-4.0839,-4.0883,-4.0906,-4.0938,-4.0987,-4.0998,-4.1046,-4.1062,-4.1088,-4.1122,-4.1121,-4.1153,-4.1164,-4.1198,-4.1205,-4.1253,-4.1262,-4.1269,-4.1271,-4.1269,-4.1269,-4.1282,-4.1279,-4.1272,-4.1271,-4.1271,-4.127,0,-4.0895,-4.0912,-4.0968,-4.1003,-4.1013,-4.1047,-4.1076,-4.1107,-4.112,-4.1163,-4.1174,-4.1194,-4.1234,-4.1247,-4.1293,-4.1299,-4.1355,-4.1352,-4.1345,-4.1346,-4.1378,-4.1375,-4.1479,-4.1494,-4.1407,-4.1408,-4.1409,0,-4.0937,-4.0972,-4.1011,-4.1035,-4.1054,-4.1092,-4.1116,-4.1128,-4.1153,-4.1191,-4.1216,-4.1256,-4.1288,-4.1351,-4.1369,-4.1405,-4.1404,-4.1438,-4.1409,-4.1407,-4.1405,-4.1403,-4.1407,-4.1443,-4.1444,-4.1445,-4.1445,0,-4.1011,-4.1019,-4.1055,-4.1095,-4.1124,-4.1156,-4.1186,-4.1205,-4.1221,-4.1249,-4.1291,-4.1316,-4.1365,-4.1404,-4.1441,-4.1457,-4.1454,-4.1454,-4.1464,-4.1463,-4.1458,-4.1462,-4.1361,-4.1452,-4.1451,-4.1451,-4.145,-4.145,-4.1063,-4.1094,-4.1127,-4.1167,-4.1191,-4.122,-4.1251,-4.1269,-4.1304,-4.1346,-4.1351,-4.1395,-4.1424,-4.1474,-4.1493,-4.1527,-4.1517,-4.1531,-4.1534,-4.1538,-4.1541,-4.1453,-4.1533,-4.1533,-4.1533,-4.1533,-4.1533,0,-4.1137,-4.1159,-4.1196,-4.124,-4.1272,-4.1268,-4.1301,-4.1327,-4.1367,-4.1396,-4.1428,-4.1476,-4.1514,-4.1536,-4.1574,-4.1597,-4.1597,-4.1607,-4.1605,-4.1609,-4.1547,-4.1535,-4.1606,-4.1606,-4.1606,-4.1606,-4.1606,-4.1606,-4.118,-4.1233,-4.1244,-4.1309,-4.1329,-4.1375,-4.1394,-4.142,-4.1443,-4.1497,-4.153,-4.1544,-4.157,-4.161,-4.1645,-4.165,-4.1664,-4.1675,-4.168,-4.1621,-4.1613,-4.1606,-4.1595,-4.1678,-4.1678,-4.1739,-4.174,-4.174]}]]